User: anonymous   Login
Location: Coupvray
(48.8929°N, 2.7967°E)
Time: 13:23:59
(UTC+00:00)
Language:

Cosmos 2221 Rocket - Orbit

View from above orbital plane
View from above orbital plane
View from above satellite
View from above satellite

Ground track
Ground track

The orbit data is extracted from the following two-line orbital elements,

1 22237U 92080B   20274.91886314 +.00000086 +00000-0 +86459-5 0  9991
2 22237 082.5096 079.7539 0018484 233.0988 126.8531 14.78418172500909
Epoch (UTC): 30 September 2020 22:03:09
Eccentricity: 0.0018484
inclination: 82.5096°
perigee height: 621 km
apogee height: 647 km
right ascension of ascending node: 79.7539°
argument of perigee: 233.0988°
revolutions per day: 14.78418172
mean anomaly at epoch: 126.8531°
orbit number at epoch: 50090

The dashed part of the orbit path shows where the satellite is in the earth's shadow,  

DLR